Location: Bernay
(48.6766°N, 2.9386°E)
Time: 12:10:54
(UTC+00:00)

Cosmos 1190 Rocket - Pass Details

Date: 12 January 2026
Orbit: 753 x 775 km, 74.1° (Epoch: 16 February)

Event Time Altitude Azimuth Distance (km) Brightness Sun altitude
Rises 16:59:28 0° 337° (NNW) 3,217 7.2 -7.1°
Reaches altitude 10° 17:01:51 10° 339° (NNW) 2,288 6.4 -7.5°
Maximum altitude 17:07:02 77° 66° (ENE) 780 3.9 -8.3°
Drops below altitude 10° 17:12:12 10° 153° (SSE) 2,278 6.4 -9.1°
Sets 17:14:34 0° 155° (SSE) 3,202 7.2 -9.4°
